FW7253 Weather Reports


time (UTC)temp
C
wind
direction
speed
KPH
gust
KPH
rain 1hr
cm
rain 24hr
cm
rain mn
cm
humidity
%
barometer
mb
20220525134557 14 211 19.3 33.8 0.00 0.46 0.25 66 1004.8
20220525134033 15 229 22.5 35.4 0.00 0.46 0.25 70 1004.8
20220525133531 14 187 20.9 35.4 0.00 0.46 0.25 69 1004.7
20220525133054 14 157 17.7 32.2 0.00 0.46 0.25 70 1004.6
20220525132533 14 143 17.7 30.6 0.00 0.46 0.25 71 1004.7
20220525132033 15 217 20.9 30.6 0.00 0.46 0.25 70 1004.6
20220525131603 15 163 16.1 25.7 0.00 0.46 0.25 66 1004.6
20220525131033 15 153 12.9 25.7 0.00 0.46 0.25 68 1004.5
20220525130533 15 223 14.5 22.5 0.00 0.46 0.25 69 1004.6
20220525130041 14 215 14.5 29.0 0.00 0.46 0.25 66 1004.7
20220525125539 14 182 17.7 29.0 0.00 0.61 0.25 69 1004.8
20220525125033 14 219 17.7 32.2 0.00 0.61 0.25 71 1004.7
20220525124535 14 170 20.9 32.2 0.00 0.61 0.25 70 1004.8
20220525124033 15 188 19.3 29.0 0.00 0.61 0.25 69 1004.7
20220525123534 14 181 16.1 30.6 0.00 0.61 0.25 72 1004.6
20220525123105 14 203 16.1 30.6 0.00 0.61 0.25 68 1004.6
20220525122533 15 220 17.7 33.8 0.00 0.61 0.25 67 1004.7
20220525122033 15 191 20.9 35.4 0.00 0.61 0.25 70 1004.9
20220525121544 14 210 19.3 38.6 0.00 0.61 0.25 72 1004.9
20220525121041 14 200 24.1 38.6 0.00 0.61 0.25 71 1004.7
20220525120531 14 234 22.5 37.0 0.00 0.61 0.25 73 1004.9
20220525120050 14 231 24.1 37.0 0.00 0.61 0.25 70 1004.8
20220525115532 15 114 17.7 30.6 0.00 1.04 0.25 75 1004.7
20220525115036 14 187 22.5 30.6 0.00 1.04 0.25 76 1004.6
20220525114604 15 185 19.3 37.0 0.00 1.04 0.25 75 1004.5
20220525114031 15 185 22.5 37.0 0.00 1.04 0.25 75 1004.5
20220525113534 15 171 12.9 30.6 0.00 1.04 0.25 71 1004.4
20220525113058 15 164 20.9 30.6 0.00 1.04 0.25 73 1004.4
20220525112537 15 202 17.7 27.4 0.00 1.04 0.25 76 1004.4
20220525112032 15 150 12.9 29.0 0.00 1.04 0.25 76 1004.5
20220525111547 14 248 16.1 29.0 0.00 1.04 0.25 76 1004.5
20220525111031 13 210 14.5 24.1 0.00 1.04 0.25 75 1004.7
20220525110530 13 183 8.0 20.9 0.00 1.04 0.25 74 1004.7
20220525110052 13 153 9.7 20.9 0.00 1.04 0.25 72 1004.6
20220525105533 13 270 9.7 22.5 0.00 1.50 0.25 75 1004.6
20220525105031 13 169 11.3 24.1 0.00 1.50 0.25 71 1004.5
20220525104538 15 224 12.9 27.4 0.00 1.50 0.25 70 1004.5
20220525104033 15 207 12.9 27.4 0.00 1.50 0.25 69 1004.4
20220525103532 15 203 8.0 22.5 0.00 1.50 0.25 75 1004.4
20220525103043 13 218 14.5 22.5 0.00 1.50 0.25 73 1004.4
20220525102532 14 179 8.0 19.3 0.00 1.50 0.25 72 1004.4
20220525102032 13 217 14.5 22.5 0.00 1.50 0.25 74 1004.3
20220525101544 13 223 12.9 22.5 0.00 1.50 0.25 73 1004.3
20220525101032 14 197 12.9 24.1 0.00 1.50 0.25 71 1004.3
20220525100532 14 207 16.1 24.1 0.00 1.50 0.25 68 1004.4
20220525100041 14 188 11.3 25.7 0.00 1.50 0.25 70 1004.3
20220525095533 15 199 12.9 25.7 0.00 1.63 0.25 70 1004.3
20220525095032 14 186 11.3 19.3 0.00 1.63 0.25 69 1004.2
20220525094551 14 172 8.0 19.3 0.00 1.63 0.25 74 1004.2
20220525094033 13 176 12.9 19.3 0.00 1.63 0.25 75 1004.3
20220525093528 13 215 8.0 12.9 0.00 1.63 0.25 76 1004.3
20220525093046 13 247 4.8 14.5 0.00 1.63 0.25 80 1004.2
20220525092532 12 210 9.7 16.1 0.00 1.63 0.25 80 1004.3
20220525092036 12 158 9.7 16.1 0.00 1.63 0.25 78 1004.4
20220525091547 12 245 6.4 22.5 0.00 1.63 0.25 78 1004.4
20220525091042 13 255 12.9 22.5 0.00 1.63 0.25 78 1004.3
20220525090536 13 211 9.7 16.1 0.00 1.63 0.25 83 1004.3
20220525090056 13 177 8.0 16.1 0.00 1.63 0.25 84 1004.3
20220525085532 12 153 9.7 14.5 0.00 1.63 0.25 81 1004.2
20220525085033 12 180 4.8 14.5 0.00 1.63 0.25 82 1004.2
20220525084545 12 165 6.4 12.9 0.00 1.63 0.25 84 1004.2
20220525084033 12 202 8.0 12.9 0.00 1.63 0.25 83 1004.2
20220525083533 12 167 4.8 12.9 0.00 1.63 0.25 84 1004.1
20220525083044 12 146 8.0 12.9 0.00 1.63 0.25 84 1004.1
20220525082536 12 201 6.4 12.9 0.00 1.63 0.25 85 1004.0
20220525082037 12 191 9.7 12.9 0.00 1.63 0.25 84 1004.0
20220525081538 12 183 8.0 12.9 0.00 1.63 0.25 83 1003.9
20220525081033 12 186 8.0 12.9 0.00 1.63 0.25 83 1003.9
20220525080533 12 161 9.7 17.7 0.00 1.63 0.25 84 1004.0
20220525080101 12 248 11.3 19.3 0.00 1.63 0.25 83 1004.0
20220525075534 12 207 12.9 19.3 0.00 1.63 0.25 84 1003.9
20220525075033 12 141 3.2 14.5 0.00 1.63 0.25 86 1004.0
20220525074551 12 118 6.4 19.3 0.00 1.63 0.25 87 1004.0
20220525074033 12 205 11.3 19.3 0.00 1.63 0.25 86 1004.0
20220525073533 12 194 8.0 14.5 0.00 1.63 0.25 88 1004.0
20220525073045 12 176 8.0 12.9 0.00 1.63 0.25 88 1003.9
20220525072536 11 210 4.8 9.7 0.00 1.63 0.25 89 1003.9
20220525072033 11 230 6.4 11.3 0.00 1.63 0.25 89 1003.9
20220525071541 11 196 6.4 12.9 0.00 1.63 0.25 89 1004.0
20220525071033 11 201 9.7 14.5 0.00 1.63 0.25 89 1003.9
20220525070535 11 237 11.3 16.1 0.00 1.63 0.25 89 1003.9
20220525070044 11 205 9.7 16.1 0.00 1.63 0.25 90 1003.9
20220525065538 11 194 8.0 11.3 0.00 1.63 0.25 91 1003.8
20220525065033 11 186 6.4 12.9 0.00 1.63 0.25 92 1003.8
20220525064552 11 189 8.0 12.9 0.00 1.63 0.25 92 1003.8
20220525064036 11 209 4.8 11.3 0.00 1.63 0.25 93 1003.7
20220525063533 11 219 6.4 11.3 0.00 1.63 0.25 94 1003.6
20220525063055 10 212 3.2 8.0 0.00 1.63 0.25 94 1003.7
20220525062533 10 238 4.8 8.0 0.00 1.63 0.25 95 1003.5
20220525062031 10 172 3.2 4.8 0.00 1.63 0.25 95 1003.5
20220525061542 10 229 3.2 4.8 0.03 1.63 0.25 96 1003.5
20220525061034 10 204 0.0 1.6 0.05 1.63 0.25 96 1003.5
20220525060533 10 0 0.0 1.6 0.08 1.63 0.25 96 1003.4
20220525060108 10 130 0.0 3.2 0.13 1.63 0.25 96 1003.4
20220525055535 10 0 0.0 3.2 0.15 1.63 0.25 96 1003.4
20220525055033 10 117 0.0 1.6 0.18 1.63 0.25 96 1003.5
20220525054556 10 0 0.0 3.2 0.18 1.63 0.25 96 1003.5
20220525054036 10 0 0.0 3.2 0.18 1.63 0.25 96 1003.5
20220525053533 10 85 0.0 3.2 0.18 1.60 0.23 96 1003.6
20220525053101 10 151 0.0 3.2 0.18 1.60 0.23 96 1003.6
20220525052537 10 108 0.0 3.2 0.18 1.60 0.23 96 1003.5
20220525052033 10 155 1.6 4.8 0.18 1.60 0.23 96 1003.6
20220525051547 9 145 1.6 4.8 0.15 1.57 0.20 96 1003.6
20220525051031 9 136 0.0 4.8 0.13 1.57 0.18 96 1003.5
20220525050533 10 153 1.6 4.8 0.08 1.52 0.15 96 1003.5
20220525050102 10 184 1.6 8.0 0.05 1.50 0.10 96 1003.5
20220525045533 10 197 1.6 8.0 0.05 1.47 0.08 96 1003.5
20220525045033 10 138 0.0 3.2 0.03 1.45 0.08 96 1003.5
20220525044556 10 162 1.6 3.2 0.03 1.42 0.05 96 1003.4
20220525044036 10 120 0.0 1.6 0.05 1.42 0.05 97 1003.4
20220525043533 10 96 0.0 1.6 0.05 1.42 0.05 96 1003.4
20220525043046 10 101 0.0 4.8 0.05 1.42 0.05 96 1003.3
20220525042540 9 94 1.6 4.8 0.05 1.42 0.05 96 1003.4
20220525042032 9 132 1.6 3.2 0.05 1.42 0.05 96 1003.4
20220525041557 9 96 0.0 3.2 0.05 1.42 0.05 96 1003.3
20220525041032 9 128 1.6 3.2 0.05 1.42 0.05 96 1003.3
20220525040536 9 0 0.0 1.6 0.05 1.42 0.05 96 1003.3
20220525040102 9 129 0.0 1.6 0.05 1.42 0.05 96 1003.4
20220525035532 9 129 0.0 3.2 0.03 1.40 0.03 96 1003.5
20220525035033 9 124 1.6 3.2 0.03 1.40 0.03 96 1003.5
20220525034607 9 160 0.0 4.8 0.00 1.40 0.00 96 1003.4
20220525034037 9 133 1.6 4.8 0.00 1.37 0.00 96 1003.4
20220525033535 9 70 1.6 4.8 0.00 1.37 0.00 96 1003.3
20220525033106 8 136 0.0 1.6 0.00 1.37 0.00 96 1003.3
20220525032533 8 158 0.0 3.2 0.00 1.37 0.00 96 1003.3
20220525032037 8 152 0.0 3.2 0.00 1.37 0.00 96 1003.3
20220525031542 9 0 0.0 1.6 0.00 1.37 0.00 96 1003.3
20220525031032 9 149 0.0 0.0 0.00 1.37 0.00 96 1003.2
20220525030534 9 149 0.0 1.6 0.00 1.37 0.00 96 1003.1
20220525030051 9 149 0.0 3.2 0.00 1.37 0.00 96 1003.1
20220525025533 9 118 1.6 3.2 0.00 1.37 0.00 96 1003.1
20220525025032 9 0 0.0 4.8 0.00 1.37 0.00 96 1003.1
20220525024539 9 0 0.0 4.8 0.00 1.37 0.00 96 1003.2
20220525024033 9 101 1.6 4.8 0.00 1.37 0.00 96 1003.1
20220525023533 9 103 0.0 4.8 0.00 1.37 0.00 96 1003.2
20220525023045 9 96 1.6 4.8 0.00 1.37 0.00 96 1003.2
20220525022531 9 169 1.6 6.4 0.00 1.37 0.00 96 1003.3
20220525022033 9 164 3.2 6.4 0.00 1.37 0.00 96 1003.2
20220525021535 9 116 1.6 4.8 0.00 1.37 0.00 96 1003.1
20220525021031 9 134 0.0 3.2 0.00 1.37 0.00 96 1003.1
20220525020533 9 0 0.0 3.2 0.00 1.37 0.00 96 1003.1
20220525020048 9 143 1.6 4.8 0.00 1.37 0.00 96 1003.1
20220525015532 9 162 1.6 4.8 0.00 1.37 0.00 96 1003.2
20220525015030 9 148 0.0 3.2 0.00 1.37 0.00 96 1003.1
20220525014537 9 107 1.6 3.2 0.00 1.37 0.00 95 1003.0
20220525014035 9 85 0.0 3.2 0.00 1.37 0.00 95 1002.8
20220525013532 9 0 0.0 1.6 0.00 1.37 0.00 96 1002.9
20220525013046 9 0 0.0 1.6 0.00 1.37 0.00 96 1002.9
20220525012534 9 0 0.0 3.2 0.00 1.37 0.00 95 1003.0
20220525012039 9 101 1.6 4.8 0.00 1.37 0.00 95 1003.0
20220525011545 9 115 1.6 4.8 0.00 1.37 0.00 95 1003.0
20220525011032 9 117 0.0 4.8 0.00 1.37 0.00 95 1003.1
20220525010532 9 148 1.6 4.8 0.00 1.37 0.00 95 1003.0
20220525010047 9 0 0.0 3.2 0.00 1.37 0.00 95 1002.8
20220525005532 10 0 1.6 6.4 0.00 1.37 0.00 95 1002.9
20220525005032 9 152 3.2 8.0 0.00 1.37 0.00 96 1003.0
20220525004551 9 146 3.2 8.0 0.00 1.37 0.00 96 1002.9
20220525004033 9 0 3.2 8.0 0.00 1.37 0.00 96 1002.8
20220525003534 9 179 3.2 8.0 0.00 1.37 0.00 96 1002.9
20220525003049 9 155 1.6 8.0 0.00 1.37 0.00 96 1002.8
20220525002533 9 68 1.6 8.0 0.00 1.37 0.00 96 1002.8
20220525002033 9 101 0.0 4.8 0.00 1.37 0.00 96 1002.8
20220525001554 9 94 1.6 4.8 0.00 1.37 0.00 96 1002.7
20220525001034 9 146 1.6 4.8 0.00 1.37 0.00 96 1002.7
20220525000532 9 97 0.0 4.8 0.00 1.37 0.00 95 1002.8
20220525000040 9 81 1.6 4.8 0.00 1.37 0.00 95 1002.7
20220524235532 9 89 1.6 4.8 0.00 1.37 0.00 95 1002.7
20220524235034 9 84 1.6 4.8 0.00 1.37 0.00 95 1002.7
20220524234550 9 83 0.0 6.4 0.00 1.37 0.00 95 1002.7
20220524234032 9 85 1.6 6.4 0.00 1.37 0.00 95 1002.6
20220524233533 10 105 1.6 4.8 0.00 1.37 0.00 95 1002.5
20220524233046 10 105 1.6 4.8 0.00 1.37 0.00 95 1002.5
20220524232532 10 138 1.6 6.4 0.00 1.37 0.00 94 1002.5
20220524232034 10 137 1.6 6.4 0.00 1.37 0.00 94 1002.4
20220524231547 10 136 1.6 8.0 0.00 1.37 0.00 94 1002.6
20220524231033 10 235 3.2 8.0 0.00 1.37 0.00 94 1002.5
20220524230532 10 104 3.2 8.0 0.00 1.37 0.00 94 1002.5
20220524230038 10 129 3.2 4.8 0.00 1.37 0.00 94 1002.6
20220524225534 10 151 3.2 6.4 0.00 1.37 0.00 94 1002.6
20220524225031 10 214 3.2 8.0 0.00 1.37 0.00 94 1002.6
20220524224600 10 200 4.8 14.5 0.00 1.37 0.00 94 1002.5
20220524224032 10 223 4.8 14.5 0.00 1.37 0.00 94 1002.5
20220524223532 10 180 3.2 8.0 0.00 1.37 0.00 94 1002.5
20220524223043 10 205 4.8 8.0 0.00 1.37 0.00 94 1002.5
20220524222534 10 98 4.8 9.7 0.00 1.37 0.00 95 1002.5
20220524222035 10 156 4.8 9.7 0.00 1.37 0.00 95 1002.5
20220524221546 10 160 4.8 9.7 0.00 1.37 0.00 95 1002.4
20220524221033 10 140 3.2 6.4 0.00 1.37 0.00 94 1002.4
20220524220533 10 167 3.2 9.7 0.00 1.37 0.00 94 1002.3
20220524220053 10 126 1.6 9.7 0.00 1.37 0.00 94 1002.2
20220524215533 10 175 3.2 11.3 0.00 1.37 1.37 94 1002.4
20220524215031 10 202 3.2 11.3 0.00 1.37 1.37 94 1002.5
20220524214559 10 146 4.8 12.9 0.00 1.37 1.37 94 1002.5
20220524214031 10 162 6.4 14.5 0.00 1.37 1.37 94 1002.6
20220524213533 10 150 4.8 14.5 0.00 1.37 1.37 94 1002.4
20220524213038 10 221 1.6 4.8 0.00 1.37 1.37 94 1002.4
20220524212531 10 53 1.6 6.4 0.00 1.37 1.37 94 1002.4
20220524212032 10 132 3.2 9.7 0.00 1.37 1.37 94 1002.3
20220524211543 10 171 1.6 9.7 0.00 1.37 1.37 94 1002.3
20220524211034 10 160 4.8 8.0 0.00 1.37 1.37 94 1002.3
20220524210532 10 160 3.2 11.3 0.00 1.37 1.37 94 1002.4
20220524210121 10 136 4.8 11.3 0.00 1.37 1.37 94 1002.4
20220524205531 10 104 3.2 8.0 0.00 1.37 1.37 94 1002.3
20220524205035 11 181 4.8 8.0 0.00 1.37 1.37 94 1002.3
20220524204539 11 138 3.2 8.0 0.00 1.37 1.37 94 1002.3
20220524204033 11 83 3.2 9.7 0.00 1.37 1.37 94 1002.2
20220524203534 11 139 3.2 9.7 0.00 1.37 1.37 94 1002.2
20220524203041 11 168 1.6 9.7 0.00 1.37 1.37 94 1002.1
20220524202534 11 100 3.2 11.3 0.00 1.37 1.37 94 1002.1
20220524202033 11 56 4.8 12.9 0.00 1.37 1.37 94 1002.1
20220524201549 11 187 3.2 12.9 0.00 1.37 1.37 94 1002.0
20220524201033 11 86 3.2 8.0 0.00 1.37 1.37 94 1002.1
20220524200532 11 174 3.2 6.4 0.00 1.37 1.37 94 1002.2
20220524200053 11 136 1.6 9.7 0.00 1.37 1.37 94 1002.2
20220524195537 11 153 3.2 9.7 0.00 1.37 1.37 94 1002.1
20220524195034 11 96 3.2 11.3 0.00 1.37 1.37 94 1002.1
20220524194548 11 146 3.2 12.9 0.00 1.37 1.37 94 1001.9
20220524194033 11 115 4.8 12.9 0.00 1.37 1.37 94 1001.9
20220524193533 11 150 4.8 12.9 0.00 1.37 1.37 94 1001.9
20220524193046 11 139 3.2 9.7 0.00 1.37 1.37 94 1001.9
20220524192531 11 183 1.6 8.0 0.00 1.37 1.37 94 1001.7
20220524192035 11 97 3.2 9.7 0.00 1.37 1.37 94 1001.6
20220524191546 11 0 3.2 9.7 0.00 1.37 1.37 94 1001.6
20220524191033 11 146 4.8 12.9 0.00 1.37 1.37 94 1001.6
20220524190531 11 165 4.8 12.9 0.00 1.37 1.37 94 1001.5
20220524190056 11 70 3.2 8.0 0.00 1.37 1.37 94 1001.5
20220524185532 11 101 3.2 12.9 0.00 1.37 1.37 94 1001.5
20220524185032 11 172 1.6 12.9 0.00 1.37 1.37 94 1001.5
20220524184552 11 162 3.2 9.7 0.00 1.37 1.37 94 1001.5
20220524184032 11 79 3.2 9.7 0.00 1.37 1.37 93 1001.4
20220524183531 11 136 3.2 9.7 0.00 1.37 1.37 93 1001.3
20220524183044 11 122 3.2 11.3 0.00 1.37 1.37 93 1001.3
20220524182535 11 146 4.8 11.3 0.00 1.37 1.37 93 1001.3
20220524182032 11 120 1.6 6.4 0.00 1.37 1.37 92 1001.2
20220524181548 11 148 3.2 8.0 0.00 1.37 1.37 92 1001.1
20220524181032 11 153 4.8 11.3 0.00 1.37 1.37 92 1001.1
20220524180532 11 158 6.4 11.3 0.00 1.37 1.37 91 1001.0
20220524180051 11 216 6.4 12.9 0.00 1.37 1.37 91 1001.0
20220524175531 11 219 8.0 12.9 0.00 1.37 1.37 91 1001.0
20220524175035 11 164 6.4 12.9 0.00 1.37 1.37 91 1001.0
20220524174545 11 198 4.8 11.3 0.00 1.37 1.37 92 1001.1
20220524174032 11 163 6.4 12.9 0.00 1.37 1.37 92 1001.0
20220524173531 11 185 4.8 19.3 0.00 1.37 1.37 92 1001.0
20220524173045 11 131 8.0 19.3 0.00 1.37 1.37 92 1000.9
20220524172532 12 179 8.0 17.7 0.00 1.37 1.37 93 1000.9
20220524172032 12 158 3.2 12.9 0.00 1.37 1.37 93 1000.9
20220524171546 12 116 6.4 12.9 0.00 1.37 1.37 93 1000.8
20220524171034 12 155 1.6 11.3 0.00 1.37 1.37 93 1000.9
20220524170531 12 199 4.8 11.3 0.00 1.37 1.37 93 1000.7
20220524170103 12 124 3.2 8.0 0.00 1.37 1.37 93 1000.7
20220524165533 12 131 1.6 9.7 0.00 1.37 1.37 93 1000.6
20220524165040 12 179 3.2 9.7 0.00 1.37 1.37 93 1000.6
20220524164537 12 162 3.2 8.0 0.00 1.37 1.37 93 1000.6
20220524164035 12 147 3.2 11.3 0.00 1.37 1.37 93 1000.7
20220524163531 12 176 3.2 11.3 0.00 1.37 1.37 93 1000.6
20220524163051 12 165 6.4 9.7 0.00 1.37 1.37 93 1000.6
20220524162536 12 191 3.2 8.0 0.00 1.37 1.37 93 1000.5
20220524162033 12 205 3.2 8.0 0.00 1.37 1.37 94 1000.7
20220524161538 12 174 3.2 8.0 0.00 1.37 1.37 94 1000.7
20220524161037 12 152 4.8 8.0 0.00 1.37 1.37 95 1000.8
20220524160535 12 131 4.8 11.3 0.03 1.37 1.37 95 1000.7
20220524160046 11 178 6.4 22.5 0.03 1.37 1.37 95 1000.8
20220524155531 11 160 9.7 22.5 0.03 1.37 1.37 95 1000.8
20220524155031 11 226 8.0 17.7 0.03 1.37 1.37 96 1000.9
20220524154540 11 162 6.4 16.1 0.05 1.37 1.37 96 1000.9
20220524154032 11 198 6.4 17.7 0.05 1.37 1.37 96 1001.0
20220524153534 11 107 8.0 17.7 0.05 1.37 1.37 95 1000.8
20220524153044 11 96 9.7 17.7 0.03 1.35 1.35 96 1000.8
20220524152538 11 76 4.8 17.7 0.05 1.35 1.35 96 1000.9
20220524152033 11 100 8.0 17.7 0.05 1.35 1.35 96 1000.7
20220524151536 11 90 6.4 12.9 0.05 1.35 1.35 96 1000.8
20220524151036 11 87 6.4 17.7 0.05 1.35 1.35 96 1000.8
20220524150534 11 75 9.7 17.7 0.05 1.32 1.32 96 1000.8
20220524150040 11 120 6.4 19.3 0.05 1.32 1.32 95 1000.8
20220524145534 11 91 8.0 19.3 0.05 1.32 1.32 95 1000.7
20220524145032 11 86 4.8 16.1 0.05 1.32 1.32 95 1001.0
20220524144555 11 89 4.8 12.9 0.05 1.30 1.30 95 1001.1
20220524144038 11 87 6.4 14.5 0.05 1.30 1.30 96 1000.9
20220524143534 11 84 6.4 14.5 0.05 1.30 1.30 95 1001.0
20220524143101 11 91 8.0 16.1 0.05 1.30 1.30 95 1001.0
20220524142536 11 123 1.6 16.1 0.05 1.30 1.30 95 1001.0
20220524142035 11 87 4.8 14.5 0.08 1.30 1.30 95 1001.1
20220524141543 11 103 6.4 14.5 0.08 1.30 1.30 95 1001.2
20220524141038 11 101 3.2 11.3 0.08 1.30 1.30 95 1001.1
20220524140533 11 98 4.8 19.3 0.08 1.27 1.27 95 1001.1
20220524140044 11 75 4.8 19.3 0.08 1.27 1.27 95 1001.0
20220524135533 11 115 8.0 19.3 0.10 1.27 1.27 95 1001.1
20220524135030 11 86 3.2 22.5 0.10 1.27 1.27 95 1001.2